• Join FlightAware (Why Join?)
  • Login
  • US Flag 
07:00PM EDT


 

Airport Tracker/Info


-or-


 

Live Flight TrackerFlight Track Log ✈ N400PU ✈ 03-Dec-2012 ✈ KCAK - KLAF

Flight Track Log - Related Links

Times and Time Zones

All times are in EST time to prevent confusion due to time zone crossing. See the N400PU flight status page for this flight to view local times or setup timezone preferences in your user account.

Time Position Orientation Groundspeed Altitude Reporting Facility
EST Latitude Longitude Course Direction KTS MPH feet Rate Location/Type
04:39PM 40.8164 -81.4336 224° Southwest 240 276 4,700  Level Cleveland Center
04:40PM 40.7764 -81.4853 224° Southwest 200 230 7,400 1,620 Climbing Cleveland Center
04:41PM 40.7842 -81.5758 277° West 205 236 8,000 300 Climbing Cleveland Center
04:42PM 40.7917 -81.6719 276° West 236 272 8,000 660 Level Cleveland Center
04:43PM 40.8011 -81.7625 278° West 255 293 9,400 2,100 Climbing Cleveland Center
04:44PM 40.8064 -81.8558 274° West 260 299 12,200 2,220 Climbing Cleveland Center
04:45PM 40.8175 -81.9631 278° West 275 316 13,900 960 Climbing Cleveland Center
04:46PM 40.8264 -82.0894 275° West 322 371 14,200 600 Climbing Cleveland Center
04:47PM 40.8372 -82.2189 276° West 354 407 15,100 840 Climbing Cleveland Center
04:48PM 40.8478 -82.3508 276° West 360 414 15,900 660 Climbing Cleveland Center
04:49PM 40.8561 -82.4692 275° West 365 420 16,500 600 Climbing Cleveland Center
04:50PM 40.8644 -82.6011 275° West 365 420 17,100 1,140 Climbing Cleveland Center
04:51PM 40.8556 -82.7353 265° West 361 415 18,800 1,860 Climbing Cleveland Center
04:52PM 40.8447 -82.8639 264° West 361 415 20,900 2,040 Climbing Cleveland Center
04:53PM 40.8314 -83.0036 263° West 360 414 22,900 1,920 Climbing Cleveland Center
04:54PM 40.8225 -83.1294 265° West 353 406 24,800 900 Climbing Cleveland Center
04:56PM 40.7928 -83.4144 262° West 371 427 26,000 360 Climbing Indianapolis Center
04:57PM 40.7783 -83.5844 264° West 408 470 26,000  Level Indianapolis Center
04:58PM 40.7656 -83.7325 264° West 418 481 26,000  Level Indianapolis Center
04:59PM 40.7508 -83.8831 263° West 418 481 26,000  Level Indianapolis Center
05:00PM 40.7336 -84.0336 261° West 418 481 26,000 -420 Level Indianapolis Center
05:01PM 40.7203 -84.1867 263° West 423 487 25,200 -960 Descending Indianapolis Center
05:02PM 40.7050 -84.3317 262° West 423 487 24,100 -1,080 Descending Indianapolis Center
05:04PM 40.6914 -84.4858 263° West 410 472 23,000 -540 Descending Chicago Center
05:05PM 40.6747 -84.6322 262° West 393 452 23,000  Level Chicago Center
05:06PM 40.6617 -84.7728 263° West 393 452 23,000  Level Chicago Center
05:07PM 40.6475 -84.8889 261° West 393 452 23,000  Level Chicago Center
05:08PM 40.6331 -85.0511 263° West 407 468 23,000 -900 Level Chicago Center
05:09PM 40.6194 -85.1917 263° West 407 468 21,300 -1,680 Descending Chicago Center
05:10PM 40.6036 -85.3294 261° West 389 448 19,700 -1,620 Descending Chicago Center
05:11PM 40.5872 -85.4644 261° West 389 448 18,100 -1,500 Descending Chicago Center
05:12PM 40.5714 -85.6075 262° West 375 432 16,700 -1,500 Descending Chicago Center
05:13PM 40.5547 -85.7397 261° West 370 426 15,100 -1,500 Descending Chicago Center
05:13PM 40.5411 -85.8417 260° West 358 412 14,000 -540 Descending Chicago Center
05:15PM 40.5289 -85.9897 264° West 357 411 14,100 -840 Climbing Chicago Center
05:16PM 40.5117 -86.1108 259° West 344 396 12,200 -1,800 Descending Chicago Center
05:17PM 40.4939 -86.2264 259° West 334 384 10,600 -1,620 Descending Chicago Center
05:18PM 40.4733 -86.3092 252° West 288 331 9,000 -1,860 Descending Chicago Center
05:19PM 40.4547 -86.3947 254° West 256 295 6,900 -1,920 Descending Chicago Center
05:20PM 40.4297 -86.4803 249° West 221 254 5,000 -1,320 Descending Chicago Center
05:21PM 40.4189 -86.5436 257° West 220 253 4,300 -900 Descending Chicago Center
05:22PM 40.4039 -86.6097 253° West 202 232 3,400 -600 Descending Chicago Center
05:23PM 40.3886 -86.6703 252° West 187 215 3,100 -240 Descending Chicago Center
05:25PM 40.4104 -86.8815 255° West  Level FlightAware Approximate
05:26PM 40.4031 -86.8497 255° West 142 163 2,500  Level Chicago Center